#timestamp,LO_Frequency,Hit,StdDev 
1587567615.2,286046998.5,N
1587567635.9,286047000.1,N
1587567655.7,286047000.1,N
1587567675.6,286047002.8,N
1587567695.4,286046999.7,N
1587567715.2,286047002.8,N
1587567735.1,286047002.1,N
1587567736.0,286047002.1,N
1587567755.8,286047000.0,N
1587567775.7,286047001.1,N
1587567795.5,286047000.3,N
1587567815.3,286047001.4,N
1587567835.2,286047001.3,N
1587567855.0,286047001.4,N
1587567855.9,286047001.4,N
1587567875.8,286047003.5,N
1587567895.6,286047003.9,N
1587567915.4,286047000.3,N
1587567935.3,286046998.7,N
1587567955.1,286046999.4,N
1587567975.9,286047001.0,N
1587567995.7,286047001.0,N
1587568015.5,286047002.2,N
1587568035.4,286047001.5,N
1587568055.2,286047002.7,N
1587568075.1,286047002.5,N
1587568076.0,286047002.5,N
1587568095.8,286047002.5,N
1587568115.6,286046999.8,N
1587568135.5,286046998.6,N
1587568155.3,286047000.9,N
1587568175.1,286046998.5,N
1587568195.9,286046998.4,N
1587568215.7,286047000.3,N
1587568235.6,286047000.4,N
1587568255.4,286047002.8,N
1587568275.2,286047002.3,N
1587568295.1,286047004.3,N
1587568296.0,286047004.3,N
1587568315.8,286047001.7,N
1587568335.7,286047003.9,N
1587568355.5,286047003.9,N
1587568375.3,286047002.1,N
1587568395.2,286047003.4,N
1587568415.0,286047005.7,Y
1587568415.9,286047005.7,P
1587568435.8,286047002.0,N
1587568455.6,286047004.2,N
1587568475.4,286047003.2,N
1587568495.3,286047003.1,N
1587568515.1,286047002.5,N
1587568535.8,286047002.2,N
1587568555.7,286046999.9,N
1587568575.5,286046998.1,N
1587568595.4,286046998.5,N
1587568615.2,286046999.9,N
1587568635.0,286047000.3,N
1587568635.9,286047000.3,N
1587568655.8,286047002.8,N
1587568675.6,286047001.0,N
1587568695.5,286046999.9,N
1587568715.3,286047000.4,N
1587568735.1,286047001.9,N
1587568755.9,286047002.3,N
1587568775.7,286046999.7,N
1587568795.6,286047002.4,N
1587568815.4,286047000.4,N
1587568835.2,286047002.5,N
1587568855.1,286047001.4,N
1587568856.0,286047001.4,N
1587568875.8,286047002.5,N
1587568895.6,286047001.8,N
1587568915.5,286047000.1,N
1587568935.3,286046999.8,N
1587568955.2,286046998.6,N
1587568975.9,286047000.8,N
1587568995.7,286047000.5,N
1587569015.6,286046999.2,N
1587569035.4,286046999.6,N
1587569055.3,286046999.1,N
1587569075.1,286046998.3,N
1587569076.0,286046998.3,N
1587569095.8,286046998.2,N
1587569115.7,286046998.8,N
1587569135.5,286046997.3,N
1587569155.4,286046997.4,N
1587569175.2,286046999.3,N
1587569195.0,286046999.0,N
1587569195.9,286046999.0,N
1587569215.8,286046999.0,N
1587569235.6,286046994.9,Y
1587569255.4,286046996.8,P
1587569275.3,286046999.3,N
1587569295.1,286046999.4,N
1587569315.9,286047001.0,N
1587569335.7,286046998.1,N
1587569355.5,286047000.5,N
1587569375.4,286047000.7,N
1587569395.2,286047002.8,N
1587569415.1,286047000.5,N
1587569416.0,286047000.5,N
1587569435.8,286047000.2,N
1587569455.6,286046999.8,N
1587569475.5,286046999.7,N
1587569495.3,286047002.3,N
1587569515.1,286046999.7,N
1587569535.9,286047000.4,N
1587569555.7,286047000.9,N
1587569575.6,286047000.6,N
1587569595.4,286047000.6,N
1587569615.2,286047000.0,N
1587569635.1,286047000.2,N
1587569636.0,286047000.2,N
1587569655.8,286047002.7,N
1587569675.7,286047000.3,N
1587569695.5,286046998.8,N
1587569715.3,286046997.0,N
1587569735.2,286046997.8,N
1587569755.0,286046995.4,Y
1587569755.9,286046995.4,P
1587569775.8,286046996.8,N
1587569795.7,286046997.6,N
1587569815.5,286046997.3,N
1587569835.4,286046996.8,N
1587569855.2,286046998.3,N
1587569875.1,286047001.2,N
1587569876.0,286047001.2,N
1587569895.8,286047002.7,N
1587569915.6,286047001.5,N
1587569935.5,286047000.9,N
1587569955.3,286046999.2,N
1587569975.2,286046995.1,N
1587569995.9,286046997.0,N
1587570015.7,286046997.1,N
1587570035.6,286046995.7,N
1587570055.4,286046993.5,N
1587570075.3,286046993.9,N
1587570095.1,286046994.9,N
1587570096.0,286046994.9,N
1587570115.8,286046997.6,N
1587570135.7,286046995.0,N
1587570155.5,286046995.3,N
1587570175.3,286046997.8,N
1587570195.2,286046997.3,N
1587570215.0,286046996.7,N
1587570215.9,286046996.7,N
1587570235.8,286046997.6,N
1587570255.6,286046995.5,N
1587570275.4,286046995.4,N
1587570295.3,286046997.5,N
1587570315.1,286046998.2,N
1587570335.9,286047000.0,N
1587570355.7,286046999.1,N
1587570375.5,286046999.5,N
1587570395.4,286046996.9,N
1587570415.2,286046997.2,N
1587570435.1,286046995.5,N
1587570436.0,286046995.5,N
1587570455.8,286046995.3,N
1587570475.6,286046995.8,N
1587570495.5,286046993.8,Y
1587570515.3,286046996.6,P
1587570535.2,286046998.8,P
1587570555.9,286047002.5,N
1587570575.7,286047001.1,N
1587570595.6,286047000.3,N
1587570615.4,286047002.0,N
1587570635.2,286047002.6,N
1587570655.1,286047000.1,N
1587570656.0,286047000.1,N
1587570675.8,286046999.9,N
1587570695.7,286047000.3,N
1587570715.5,286047004.1,N
1587570735.3,286047003.7,N
1587570755.2,286047001.7,N
1587570775.0,286047003.9,N
1587570775.9,286047003.9,N
1587570795.8,286047004.2,N
1587570815.6,286047002.8,N
1587570835.4,286047000.1,N
1587570855.3,286047003.2,N
1587570875.1,286047001.7,N
1587570895.9,286047004.3,N
1587570915.7,286047004.1,N
1587570935.5,286047005.6,N
1587570955.4,286047005.5,N
1587570975.2,286047001.3,N
1587570995.0,286047003.2,N
1587570995.9,286047003.2,N
1587571015.8,286047004.2,N
1587571035.6,286047003.5,N
1587571055.5,286047002.9,N
1587571075.3,286047005.6,Y
1587571095.1,286047001.7,P
1587571115.9,286047005.5,P
1587571135.7,286047001.6,N
1587571155.6,286047000.6,N
1587571175.4,286047002.2,N
1587571195.2,286047004.4,N
